Flag Weather past 2 weeks in Decatur, Illinois, U.S.A.

Now
53 °F

Light rain. Mostly cloudy.


Feels Like: 48 °F
Forecast: 49 / 55 °F
Wind: 21 mph from South

Location: Decatur Airport

Current Time: Nov 22, 2014 at 9:54:32 PM

Latest Report: Nov 22, 2014 at 8:54 PM


Visibility: 9 mi

Pressure: 29.92 "Hg

Humidity: 83%

Dew point: 48 °F

Location of DecaturLocation

Historic Weather in Decatur — Graph

°F

Decatur temperature yesterday

Maximum temperature yesterday: 38 °F (at 10:54 PM)
Minimum temperature yesterday: 11 °F (at 4:54 AM)
Average temperature yesterday: 27 °F

Past Weeks' High & Low Weather Summary

 TemperatureHumidityPressure
High66 °F (Nov 10, 1:54 PM)93% (Nov 15, 7:54 PM)30.50 "Hg (Nov 15, 7:54 PM)
Low11 °F (Nov 21, 4:54 AM)36% (Nov 21, 1:54 PM)29.56 "Hg (Nov 10, 4:54 PM)
Average32 °F68%30.14 "Hg
* Reported Nov 7 7:54 PM — Nov 22 7:54 PM, Decatur, Weather by CustomWeather, © 2014

Note: Actual official high and low records may vary slightly from our data, if they occured in-between our weather recording intervals... More about our weather records

Advertising

Decatur weather history for previous 24 hours

 ConditionsComfort  
Time TempWeatherWind HumidityBarometerVisibility
7:54 PM
Nov 22
53 °FLight rain. Overcast.21 mph83%29.94 "Hg9 mi
6:54 PM53 °FLight rain. Mostly cloudy.13 mph83%29.95 "Hg10 mi
5:54 PM54 °FOvercast.16 mph77%29.95 "Hg10 mi
4:54 PM56 °FOvercast.17 mph72%29.95 "Hg10 mi
3:54 PM56 °FOvercast.18 mph70%29.96 "Hg10 mi
2:54 PM56 °FOvercast.18 mph70%29.96 "Hg10 mi
1:54 PM56 °FOvercast.20 mph67%29.97 "Hg10 mi
12:54 PM57 °FMostly cloudy.20 mph64%29.99 "Hg10 mi
11:54 AM57 °FOvercast.22 mph67%30.02 "Hg10 mi
10:54 AM56 °FPartly sunny.20 mph70%30.05 "Hg10 mi
9:54 AM52 °FMostly cloudy.18 mph75%30.08 "Hg10 mi
8:54 AM49 °FCloudy.16 mph77%30.09 "Hg10 mi
7:54 AM46 °FMostly cloudy.13 mph77%30.10 "Hg10 mi
6:54 AM44 °FOvercast.13 mph76%30.12 "Hg10 mi
5:54 AM42 °FOvercast.14 mph73%30.13 "Hg10 mi
4:54 AM40 °FMostly cloudy.13 mph73%30.14 "Hg10 mi
3:54 AM39 °FMostly cloudy.13 mph73%30.15 "Hg10 mi
2:54 AM38 °FMostly cloudy.13 mph76%30.18 "Hg10 mi
1:54 AM38 °FOvercast.16 mph76%30.19 "Hg10 mi
12:54 AM37 °FMostly cloudy.13 mph86%30.19 "Hg8 mi
11:54 PM
Nov 21
37 °FLight rain. Overcast.16 mph67%30.22 "Hg6 mi
10:54 PM38 °FLight rain. Overcast.13 mph55%30.24 "Hg10 mi
9:54 PM37 °FOvercast.13 mph50%30.26 "Hg10 mi
Weather by CustomWeather, © 2014

See weather overviewHow to use our weather pages